(387) Aquitania
ephemeris date magn radius delta ra dec elong phase
Today16 Sep 202513.43.097 AU4.038 AU10h38m+14°24'18.0°5.7°
Opposition27 Mar 202611.42.667 AU1.728 AU13h05m+19°47'155.4°9.0°
(387) Aquitania - 2025-09-16
astro.vanbuitenen.nl


 
-1 year
-1 month
-1 day
Now
+1 day
+1 month
+1 year

The interactive orbit chart above shows the body's path through the solar system and its position at the given date. Green and blue lines are shown perpendicular to the ecliptic plane: Green if the path is above the ecliptic plane, blue if it is below. (Left-click and drag to rotate the view; Right-click and drag to move the view; Use scroll wheel to zoom in our out.)

The orbital elements of Aquitania are:

            e (Eccentricity)                : 0.2380094
            a (Semimajor axis)              : 2.7374944
            i (Inclination)                 : 18.14581
            Ω (Longitude of ascending node) : 127.98927
            ω (Argument of perihelion)      : 157.70794
            M (Mean anomaly)                : 218.70395
            Epoch                           : 2025 May 05

            L (Longitude of perihelion)     : 106.70442
            B (Latitude of perihelion)      : 6.78457
            P (Orbital period in years)     : 4.53            
        

The light curve chart below shows the estimated development of the minor planet's magnitude.


The all-sky chart below shows the path of the minor planet over the same period as the light curve. The current position is marked yellow.





The following chart shows the path of the minor planet in the next few days. The field of view is optimized for (~10x50) binoculars and finderscopes. A more printer-friendly version of the same chart can be found below.




Ephemerides:
Date       Time       RA (2000)    DEC (2000)    delta   radius  elong  phase   PA    magn
2025-09-16 00:00 UT   10 38 58.5   +14 24 32     4.038    3.097   18.0    5.7   309   13.4 
2025-09-16 04:19 UT   10 39 13.8   +14 23 31     4.037    3.097   18.1    5.8   309   13.4 
2025-09-17 00:00 UT   10 40 23.8   +14 18 53     4.032    3.095   18.6    5.9   309   13.4 
2025-09-18 00:00 UT   10 41 49.0   +14 13 13     4.025    3.094   19.2    6.1   308   13.4 
2025-09-19 00:00 UT   10 43 14.2   +14 07 34     4.018    3.092   19.8    6.3   308   13.4 
2025-09-20 00:00 UT   10 44 39.4   +14 01 54     4.012    3.090   20.4    6.5   308   13.5 
2025-09-21 00:00 UT   10 46 04.5   +13 56 15     4.004    3.088   21.0    6.7   307   13.5 
2025-09-22 00:00 UT   10 47 29.5   +13 50 36     3.997    3.086   21.6    6.9   307   13.5 
2025-09-23 00:00 UT   10 48 54.5   +13 44 57     3.990    3.084   22.2    7.1   307   13.5 
2025-09-24 00:00 UT   10 50 19.5   +13 39 18     3.983    3.082   22.8    7.3   306   13.5 
2025-09-25 00:00 UT   10 51 44.3   +13 33 39     3.975    3.081   23.4    7.4   306   13.5 
2025-09-26 00:00 UT   10 53 09.1   +13 28 01     3.967    3.079   24.1    7.6   306   13.5 
2025-09-27 00:00 UT   10 54 33.9   +13 22 24     3.959    3.077   24.7    7.8   306   13.5 
2025-09-28 00:00 UT   10 55 58.5   +13 16 47     3.951    3.075   25.3    8.0   305   13.5 
2025-09-29 00:00 UT   10 57 23.1   +13 11 10     3.943    3.073   25.9    8.2   305   13.5 
2025-09-30 00:00 UT   10 58 47.6   +13 05 34     3.935    3.071   26.5    8.4   305   13.5 
2025-10-01 00:00 UT   11 00 12.1   +12 59 59     3.926    3.069   27.1    8.6   305   13.5 
2025-10-02 00:00 UT   11 01 36.4   +12 54 25     3.917    3.067   27.8    8.7   305   13.5 
2025-10-03 00:00 UT   11 03 00.7   +12 48 51     3.909    3.065   28.4    8.9   304   13.5 
2025-10-04 00:00 UT   11 04 24.8   +12 43 18     3.900    3.064   29.0    9.1   304   13.5 
2025-10-05 00:00 UT   11 05 48.9   +12 37 47     3.891    3.062   29.6    9.3   304   13.5 
2025-10-06 00:00 UT   11 07 12.9   +12 32 16     3.881    3.060   30.3    9.5   304   13.5 
2025-10-07 00:00 UT   11 08 36.8   +12 26 46     3.872    3.058   30.9    9.7   304   13.5 
2025-10-08 00:00 UT   11 10 00.6   +12 21 17     3.863    3.056   31.5    9.8   304   13.5 
2025-10-09 00:00 UT   11 11 24.3   +12 15 50     3.853    3.054   32.2   10.0   303   13.5 


    Terminology:
            
    delta:  distance between minor planet and earth in AU
    radius: distance between minor planet and sun in AU
    magn:   magnitude (brightness) estimate    
    ra:     right ascension in hours (24h = 360deg)
    dec:    declination in degrees
    elong:  elongation in degrees (angle sun-earth-minor planet)    
    phase:  phase angle in degrees (angle sun-minor planet-earth)        
    AU:     Astronomical Unit (mean distance between earth and sun: 149597870.7 km
    

Orbital elements provided by the MPC (Minor Planet Center).
Calculations by a modified version of AAPlus, a C# implementation of the AA+ project by PJ Naughter from the algorithms presented in the book "Astronomical Algorithms" by Jean Meeus.
NGC2000 dso catalog and star labels from VizieR as provided by the Strasbourg astronomical Data Center.
Tycho2 catalog from the ESO archive.